contact:dominique.lefevre@mio.osupytheas.fr, maurice.libes@osupytheas.fr, didier.mallarino@osupytheas.fr
Project:EMSO http://www.emso-fr.org/EMSO-France
Depth: 2436.0 m
Title:EMSO Ligure Ouest : Data MII capteur MICROCAT
DateTime_Computer,Latitude,Longitude,Temperature,Conductivity,Pressure,DateTime_Instrument
DateTime_Computer,Latitude,Longitude,degC,S m-1,dbar,DateTime_Instrument
2019-07-07T00:00:16Z,42.805,6.029,13.2982,4.60064,2469.97,2019-7-07T02:00:34Z
2019-07-07T00:03:19Z,42.805,6.029,13.2993,4.60031,2469.947,2019-7-07T02:03:37Z
2019-07-07T00:06:22Z,42.805,6.029,13.2993,4.59995,2469.97,2019-7-07T02:06:40Z
2019-07-07T00:09:25Z,42.805,6.029,13.2987,4.59996,2469.97,2019-7-07T02:09:43Z
2019-07-07T00:12:28Z,42.805,6.029,13.2982,4.60029,2469.984,2019-7-07T02:12:46Z
2019-07-07T00:15:31Z,42.805,6.029,13.2996,4.60036,2469.97,2019-7-07T02:15:49Z
2019-07-07T00:18:34Z,42.805,6.029,13.3000,4.60033,2469.984,2019-7-07T02:18:52Z
2019-07-07T00:21:37Z,42.805,6.029,13.2997,4.60026,2469.96,2019-7-07T02:21:55Z
2019-07-07T00:24:40Z,42.805,6.029,13.3009,4.60004,2469.96,2019-7-07T02:24:58Z
2019-07-07T00:27:43Z,42.805,6.029,13.2985,4.60035,2469.947,2019-7-07T02:28:01Z
2019-07-07T00:30:46Z,42.805,6.029,13.2991,4.60021,2469.947,2019-7-07T02:31:03Z
2019-07-07T00:33:49Z,42.805,6.029,13.2996,4.60014,2469.914,2019-7-07T02:34:06Z
2019-07-07T00:36:52Z,42.805,6.029,13.2995,4.60015,2469.97,2019-7-07T02:37:09Z
2019-07-07T00:39:55Z,42.805,6.029,13.2978,4.60049,2469.993,2019-7-07T02:40:12Z
2019-07-07T00:42:58Z,42.805,6.029,13.2979,4.60033,2469.97,2019-7-07T02:43:15Z
2019-07-07T00:46:00Z,42.805,6.029,13.3006,4.60013,2469.97,2019-7-07T02:46:18Z
2019-07-07T00:49:03Z,42.805,6.029,13.3001,4.59999,2469.923,2019-7-07T02:49:21Z
2019-07-07T00:52:06Z,42.805,6.029,13.2974,4.60016,2469.97,2019-7-07T02:52:24Z
2019-07-07T00:55:09Z,42.805,6.029,13.2967,4.60021,2469.937,2019-7-07T02:55:27Z
2019-07-07T00:58:12Z,42.805,6.029,13.2975,4.60017,2469.937,2019-7-07T02:58:30Z
2019-07-07T01:01:15Z,42.805,6.029,13.2971,4.60032,2469.947,2019-7-07T03:01:33Z
2019-07-07T01:04:18Z,42.805,6.029,13.2980,4.60067,2469.947,2019-7-07T03:04:36Z
2019-07-07T01:07:21Z,42.805,6.029,13.2970,4.60067,2469.956,2019-7-07T03:07:39Z
2019-07-07T01:10:24Z,42.805,6.029,13.2974,4.60059,2469.937,2019-7-07T03:10:42Z
2019-07-07T01:13:27Z,42.805,6.029,13.2982,4.60060,2469.9,2019-7-07T03:13:45Z
2019-07-07T01:16:30Z,42.805,6.029,13.2988,4.60067,2469.937,2019-7-07T03:16:48Z
2019-07-07T01:19:33Z,42.805,6.029,13.2979,4.60074,2469.96,2019-7-07T03:19:51Z
2019-07-07T01:22:36Z,42.805,6.029,13.2976,4.60078,2469.937,2019-7-07T03:22:54Z
2019-07-07T01:25:39Z,42.805,6.029,13.2974,4.60042,2469.937,2019-7-07T03:25:56Z
2019-07-07T01:28:42Z,42.805,6.029,13.2974,4.60011,2469.937,2019-7-07T03:28:59Z
2019-07-07T01:31:45Z,42.805,6.029,13.2989,4.60031,2469.9,2019-7-07T03:32:02Z
2019-07-07T01:34:48Z,42.805,6.029,13.3003,4.60019,2469.937,2019-7-07T03:35:05Z
2019-07-07T01:37:51Z,42.805,6.029,13.2999,4.60052,2469.914,2019-7-07T03:38:08Z
2019-07-07T01:40:53Z,42.805,6.029,13.2989,4.60040,2469.937,2019-7-07T03:41:11Z
2019-07-07T01:43:56Z,42.805,6.029,13.2996,4.60070,2469.9,2019-7-07T03:44:14Z
2019-07-07T01:46:59Z,42.805,6.029,13.2991,4.60066,2469.914,2019-7-07T03:47:17Z
2019-07-07T01:50:02Z,42.805,6.029,13.2990,4.60015,2469.914,2019-7-07T03:50:20Z
2019-07-07T01:53:05Z,42.805,6.029,13.2990,4.60041,2469.876,2019-7-07T03:53:23Z
2019-07-07T01:56:08Z,42.805,6.029,13.2973,4.60003,2469.914,2019-7-07T03:56:26Z
2019-07-07T01:59:11Z,42.805,6.029,13.2977,4.60033,2469.937,2019-7-07T03:59:29Z
2019-07-07T02:02:14Z,42.805,6.029,13.3009,4.60007,2469.876,2019-7-07T04:02:32Z
2019-07-07T02:05:17Z,42.805,6.029,13.2971,4.60021,2469.914,2019-7-07T04:05:35Z
2019-07-07T02:08:20Z,42.805,6.029,13.2975,4.60056,2469.9,2019-7-07T04:08:38Z
2019-07-07T02:11:23Z,42.805,6.029,13.2992,4.60085,2469.89,2019-7-07T04:11:41Z
2019-07-07T02:14:26Z,42.805,6.029,13.2971,4.60046,2469.853,2019-7-07T04:14:44Z
2019-07-07T02:17:29Z,42.805,6.029,13.2987,4.60019,2469.876,2019-7-07T04:17:47Z
2019-07-07T02:20:32Z,42.805,6.029,13.2993,4.60047,2469.89,2019-7-07T04:20:49Z
2019-07-07T02:23:35Z,42.805,6.029,13.2986,4.60011,2469.89,2019-7-07T04:23:52Z
2019-07-07T02:26:38Z,42.805,6.029,13.2990,4.59989,2469.89,2019-7-07T04:26:55Z
2019-07-07T02:29:41Z,42.805,6.029,13.2976,4.60003,2469.867,2019-7-07T04:29:58Z
2019-07-07T02:32:44Z,42.805,6.029,13.2990,4.60024,2469.89,2019-7-07T04:33:01Z
2019-07-07T02:35:46Z,42.805,6.029,13.2986,4.60029,2469.876,2019-7-07T04:36:04Z
2019-07-07T02:38:49Z,42.805,6.029,13.2996,4.60026,2469.89,2019-7-07T04:39:07Z
2019-07-07T02:41:52Z,42.805,6.029,13.2983,4.60016,2469.853,2019-7-07T04:42:10Z
2019-07-07T02:44:55Z,42.805,6.029,13.2990,4.60024,2469.867,2019-7-07T04:45:13Z
2019-07-07T02:47:58Z,42.805,6.029,13.2993,4.60019,2469.853,2019-7-07T04:48:16Z
2019-07-07T02:51:01Z,42.805,6.029,13.2976,4.60028,2469.853,2019-7-07T04:51:19Z
2019-07-07T02:54:04Z,42.805,6.029,13.2993,4.59993,2469.89,2019-7-07T04:54:22Z
2019-07-07T02:57:07Z,42.805,6.029,13.3014,4.60046,2469.853,2019-7-07T04:57:25Z
2019-07-07T03:00:10Z,42.805,6.029,13.2987,4.60027,2469.844,2019-7-07T05:00:28Z
2019-07-07T03:03:13Z,42.805,6.029,13.2998,4.60006,2469.806,2019-7-07T05:03:31Z
2019-07-07T03:06:16Z,42.805,6.029,13.2996,4.60051,2469.853,2019-7-07T05:06:34Z
2019-07-07T03:09:19Z,42.805,6.029,13.3014,4.59987,2469.83,2019-7-07T05:09:37Z
2019-07-07T03:12:22Z,42.805,6.029,13.3029,4.60017,2469.844,2019-7-07T05:12:40Z
2019-07-07T03:15:25Z,42.805,6.029,13.3010,4.60010,2469.844,2019-7-07T05:15:42Z
2019-07-07T03:18:28Z,42.805,6.029,13.3016,4.60026,2469.821,2019-7-07T05:18:45Z
2019-07-07T03:21:31Z,42.805,6.029,13.2994,4.60023,2469.867,2019-7-07T05:21:48Z
2019-07-07T03:24:34Z,42.805,6.029,13.2990,4.60026,2469.853,2019-7-07T05:24:51Z
2019-07-07T03:27:36Z,42.805,6.029,13.3001,4.60030,2469.821,2019-7-07T05:27:54Z
2019-07-07T03:30:39Z,42.805,6.029,13.2998,4.60086,2469.867,2019-7-07T05:30:57Z
2019-07-07T03:33:42Z,42.805,6.029,13.2982,4.60066,2469.797,2019-7-07T05:34:00Z
2019-07-07T03:36:45Z,42.805,6.029,13.2988,4.60026,2469.806,2019-7-07T05:37:03Z
2019-07-07T03:39:48Z,42.805,6.029,13.2982,4.60034,2469.821,2019-7-07T05:40:06Z
2019-07-07T03:42:51Z,42.805,6.029,13.2986,4.60069,2469.806,2019-7-07T05:43:09Z
2019-07-07T03:45:54Z,42.805,6.029,13.2991,4.60032,2469.821,2019-7-07T05:46:12Z
2019-07-07T03:48:57Z,42.805,6.029,13.3008,4.60058,2469.821,2019-7-07T05:49:15Z
2019-07-07T03:52:00Z,42.805,6.029,13.3046,4.60024,2469.797,2019-7-07T05:52:18Z
2019-07-07T03:55:03Z,42.805,6.029,13.2990,4.60038,2469.83,2019-7-07T05:55:21Z
2019-07-07T03:58:06Z,42.805,6.029,13.2978,4.60019,2469.797,2019-7-07T05:58:24Z
2019-07-07T04:01:09Z,42.805,6.029,13.3006,4.60046,2469.797,2019-7-07T06:01:27Z
2019-07-07T04:04:12Z,42.805,6.029,13.3000,4.60011,2469.844,2019-7-07T06:04:30Z
2019-07-07T04:07:15Z,42.805,6.029,13.2976,4.60037,2469.76,2019-7-07T06:07:32Z
2019-07-07T04:10:18Z,42.805,6.029,13.3003,4.60057,2469.797,2019-7-07T06:10:35Z
2019-07-07T04:13:21Z,42.805,6.029,13.2990,4.60037,2469.76,2019-7-07T06:13:38Z
2019-07-07T04:16:24Z,42.805,6.029,13.3010,4.60033,2469.797,2019-7-07T06:16:41Z
2019-07-07T04:19:26Z,42.805,6.029,13.2979,4.60029,2469.797,2019-7-07T06:19:44Z
2019-07-07T04:22:29Z,42.805,6.029,13.2990,4.60057,2469.797,2019-7-07T06:22:47Z
2019-07-07T04:25:32Z,42.805,6.029,13.2988,4.60054,2469.773,2019-7-07T06:25:50Z
2019-07-07T04:28:35Z,42.805,6.029,13.3002,4.60031,2469.844,2019-7-07T06:28:53Z
2019-07-07T04:31:38Z,42.805,6.029,13.2988,4.60025,2469.783,2019-7-07T06:31:56Z
2019-07-07T04:34:41Z,42.805,6.029,13.2993,4.60051,2469.783,2019-7-07T06:34:59Z
2019-07-07T04:37:44Z,42.805,6.029,13.2996,4.60052,2469.773,2019-7-07T06:38:02Z
2019-07-07T04:40:47Z,42.805,6.029,13.3001,4.60034,2469.773,2019-7-07T06:41:05Z
2019-07-07T04:43:50Z,42.805,6.029,13.3013,4.60031,2469.773,2019-7-07T06:44:08Z
2019-07-07T04:46:53Z,42.805,6.029,13.3000,4.59998,2469.783,2019-7-07T06:47:11Z
2019-07-07T04:49:56Z,42.805,6.029,13.2983,4.60059,2469.806,2019-7-07T06:50:14Z
2019-07-07T04:52:59Z,42.805,6.029,13.3003,4.60011,2469.797,2019-7-07T06:53:17Z
2019-07-07T04:56:02Z,42.805,6.029,13.2985,4.60056,2469.76,2019-7-07T06:56:20Z
2019-07-07T04:59:05Z,42.805,6.029,13.2986,4.60044,2469.783,2019-7-07T06:59:23Z
2019-07-07T05:02:08Z,42.805,6.029,13.2994,4.60039,2469.773,2019-7-07T07:02:25Z
2019-07-07T05:05:11Z,42.805,6.029,13.2986,4.60049,2469.76,2019-7-07T07:05:28Z
2019-07-07T05:08:14Z,42.805,6.029,13.2982,4.60054,2469.773,2019-7-07T07:08:31Z
2019-07-07T05:11:17Z,42.805,6.029,13.2995,4.60061,2469.783,2019-7-07T07:11:34Z
2019-07-07T05:14:19Z,42.805,6.029,13.2983,4.60033,2469.773,2019-7-07T07:14:37Z
2019-07-07T05:17:22Z,42.805,6.029,13.2987,4.60058,2469.737,2019-7-07T07:17:40Z
2019-07-07T05:20:25Z,42.805,6.029,13.2986,4.60046,2469.75,2019-7-07T07:20:43Z
2019-07-07T05:23:28Z,42.805,6.029,13.2998,4.60041,2469.737,2019-7-07T07:23:46Z
2019-07-07T05:26:31Z,42.805,6.029,13.2976,4.60045,2469.773,2019-7-07T07:26:49Z
2019-07-07T05:29:34Z,42.805,6.029,13.3000,4.60030,2469.76,2019-7-07T07:29:52Z
2019-07-07T05:32:37Z,42.805,6.029,13.2999,4.60036,2469.76,2019-7-07T07:32:55Z
2019-07-07T05:35:40Z,42.805,6.029,13.3021,4.60033,2469.737,2019-7-07T07:35:58Z
2019-07-07T05:38:43Z,42.805,6.029,13.3021,4.59981,2469.76,2019-7-07T07:39:01Z
2019-07-07T05:41:46Z,42.805,6.029,13.3009,4.59998,2469.773,2019-7-07T07:42:04Z
2019-07-07T05:44:49Z,42.805,6.029,13.3009,4.59985,2469.783,2019-7-07T07:45:07Z
2019-07-07T05:47:52Z,42.805,6.029,13.3014,4.60011,2469.737,2019-7-07T07:48:10Z
2019-07-07T05:50:55Z,42.805,6.029,13.2999,4.60016,2469.76,2019-7-07T07:51:13Z
2019-07-07T05:53:58Z,42.805,6.029,13.3003,4.59979,2469.783,2019-7-07T07:54:15Z
2019-07-07T05:57:01Z,42.805,6.029,13.3005,4.60001,2469.773,2019-7-07T07:57:18Z
2019-07-07T06:00:04Z,42.805,6.029,13.2997,4.60024,2469.773,2019-7-07T08:00:21Z
2019-07-07T06:03:07Z,42.805,6.029,13.2996,4.60042,2469.797,2019-7-07T08:03:24Z
2019-07-07T06:06:10Z,42.805,6.029,13.3006,4.59999,2469.783,2019-7-07T08:06:27Z
2019-07-07T06:09:12Z,42.805,6.029,13.3021,4.59991,2469.727,2019-7-07T08:09:30Z
2019-07-07T06:12:15Z,42.805,6.029,13.3002,4.60018,2469.773,2019-7-07T08:12:33Z
2019-07-07T06:15:18Z,42.805,6.029,13.2996,4.59981,2469.783,2019-7-07T08:15:36Z
2019-07-07T06:18:21Z,42.805,6.029,13.2997,4.59983,2469.75,2019-7-07T08:18:39Z
2019-07-07T06:21:24Z,42.805,6.029,13.3001,4.60011,2469.773,2019-7-07T08:21:42Z
2019-07-07T06:24:27Z,42.805,6.029,13.3002,4.59995,2469.76,2019-7-07T08:24:45Z
2019-07-07T06:27:30Z,42.805,6.029,13.3020,4.60005,2469.783,2019-7-07T08:27:48Z
2019-07-07T06:30:33Z,42.805,6.029,13.3004,4.60028,2469.76,2019-7-07T08:30:51Z
2019-07-07T06:33:36Z,42.805,6.029,13.3004,4.59982,2469.797,2019-7-07T08:33:54Z
2019-07-07T06:36:39Z,42.805,6.029,13.2977,4.60030,2469.783,2019-7-07T08:36:57Z
2019-07-07T06:39:42Z,42.805,6.029,13.2996,4.60073,2469.773,2019-7-07T08:40:00Z
2019-07-07T06:42:45Z,42.805,6.029,13.2991,4.60031,2469.76,2019-7-07T08:43:03Z
2019-07-07T06:45:48Z,42.805,6.029,13.3009,4.60008,2469.76,2019-7-07T08:46:06Z
2019-07-07T06:48:51Z,42.805,6.029,13.3008,4.60027,2469.76,2019-7-07T08:49:08Z
2019-07-07T06:51:54Z,42.805,6.029,13.2993,4.60076,2469.783,2019-7-07T08:52:11Z
2019-07-07T06:54:57Z,42.805,6.029,13.2998,4.60046,2469.75,2019-7-07T08:55:14Z
2019-07-07T06:58:00Z,42.805,6.029,13.2996,4.60065,2469.797,2019-7-07T08:58:17Z
2019-07-07T07:01:02Z,42.805,6.029,13.2991,4.60054,2469.821,2019-7-07T09:01:20Z
2019-07-07T07:04:05Z,42.805,6.029,13.3015,4.60026,2469.783,2019-7-07T09:04:23Z
2019-07-07T07:07:08Z,42.805,6.029,13.3004,4.60036,2469.76,2019-7-07T09:07:26Z
2019-07-07T07:10:11Z,42.805,6.029,13.3014,4.60022,2469.773,2019-7-07T09:10:29Z
2019-07-07T07:13:14Z,42.805,6.029,13.3012,4.60035,2469.783,2019-7-07T09:13:32Z
2019-07-07T07:16:17Z,42.805,6.029,13.3016,4.60000,2469.806,2019-7-07T09:16:35Z
2019-07-07T07:19:20Z,42.805,6.029,13.2992,4.60003,2469.821,2019-7-07T09:19:38Z
2019-07-07T07:22:23Z,42.805,6.029,13.3000,4.60048,2469.844,2019-7-07T09:22:41Z
2019-07-07T07:25:26Z,42.805,6.029,13.3005,4.60020,2469.821,2019-7-07T09:25:44Z
2019-07-07T07:28:29Z,42.805,6.029,13.3015,4.60052,2469.783,2019-7-07T09:28:47Z
2019-07-07T07:31:32Z,42.805,6.029,13.3014,4.60029,2469.806,2019-7-07T09:31:50Z
2019-07-07T07:34:35Z,42.805,6.029,13.2999,4.60009,2469.821,2019-7-07T09:34:53Z
2019-07-07T07:37:38Z,42.805,6.029,13.2986,4.60009,2469.797,2019-7-07T09:37:56Z
2019-07-07T07:40:41Z,42.805,6.029,13.2995,4.60044,2469.797,2019-7-07T09:40:59Z
2019-07-07T07:43:44Z,42.805,6.029,13.2996,4.60040,2469.783,2019-7-07T09:44:01Z
2019-07-07T07:46:47Z,42.805,6.029,13.2985,4.60032,2469.806,2019-7-07T09:47:04Z
2019-07-07T07:49:50Z,42.805,6.029,13.3002,4.60059,2469.806,2019-7-07T09:50:07Z
2019-07-07T07:52:53Z,42.805,6.029,13.3015,4.60024,2469.821,2019-7-07T09:53:10Z
2019-07-07T07:55:55Z,42.805,6.029,13.2998,4.60034,2469.806,2019-7-07T09:56:13Z
2019-07-07T07:58:58Z,42.805,6.029,13.2991,4.60020,2469.797,2019-7-07T09:59:16Z
2019-07-07T08:02:01Z,42.805,6.029,13.2991,4.60049,2469.797,2019-7-07T10:02:19Z
2019-07-07T08:05:04Z,42.805,6.029,13.2996,4.60061,2469.783,2019-7-07T10:05:22Z
2019-07-07T08:08:07Z,42.805,6.029,13.2991,4.60041,2469.821,2019-7-07T10:08:25Z
2019-07-07T08:11:10Z,42.805,6.029,13.2986,4.60064,2469.844,2019-7-07T10:11:28Z
2019-07-07T08:14:13Z,42.805,6.029,13.2999,4.60062,2469.844,2019-7-07T10:14:31Z
2019-07-07T08:17:16Z,42.805,6.029,13.2991,4.60039,2469.83,2019-7-07T10:17:34Z
2019-07-07T08:20:19Z,42.805,6.029,13.3003,4.60074,2469.844,2019-7-07T10:20:37Z
2019-07-07T08:23:22Z,42.805,6.029,13.2983,4.60031,2469.821,2019-7-07T10:23:40Z
2019-07-07T08:26:25Z,42.805,6.029,13.2991,4.60075,2469.821,2019-7-07T10:26:43Z
2019-07-07T08:29:28Z,42.805,6.029,13.2978,4.60043,2469.844,2019-7-07T10:29:46Z
2019-07-07T08:32:31Z,42.805,6.029,13.2992,4.60057,2469.83,2019-7-07T10:32:49Z
2019-07-07T08:35:34Z,42.805,6.029,13.2992,4.60054,2469.83,2019-7-07T10:35:52Z
2019-07-07T08:38:37Z,42.805,6.029,13.2976,4.60054,2469.867,2019-7-07T10:38:55Z
2019-07-07T08:41:40Z,42.805,6.029,13.3000,4.60042,2469.821,2019-7-07T10:41:57Z
2019-07-07T08:44:43Z,42.805,6.029,13.2981,4.60024,2469.853,2019-7-07T10:45:00Z
2019-07-07T08:47:46Z,42.805,6.029,13.2986,4.60047,2469.797,2019-7-07T10:48:03Z
2019-07-07T08:50:49Z,42.805,6.029,13.2991,4.60044,2469.853,2019-7-07T10:51:06Z
2019-07-07T08:53:52Z,42.805,6.029,13.2996,4.60006,2469.867,2019-7-07T10:54:09Z
2019-07-07T08:56:54Z,42.805,6.029,13.3002,4.60038,2469.844,2019-7-07T10:57:12Z
2019-07-07T08:59:57Z,42.805,6.029,13.2996,4.60036,2469.867,2019-7-07T11:00:15Z
2019-07-07T09:03:00Z,42.805,6.029,13.2991,4.60030,2469.844,2019-7-07T11:03:18Z
2019-07-07T09:06:03Z,42.805,6.029,13.3029,4.60039,2469.844,2019-7-07T11:06:21Z
2019-07-07T09:09:06Z,42.805,6.029,13.2997,4.60021,2469.853,2019-7-07T11:09:24Z
2019-07-07T09:12:09Z,42.805,6.029,13.2989,4.60059,2469.853,2019-7-07T11:12:27Z
2019-07-07T09:15:12Z,42.805,6.029,13.2984,4.60042,2469.853,2019-7-07T11:15:30Z
2019-07-07T09:18:15Z,42.805,6.029,13.2986,4.60014,2469.867,2019-7-07T11:18:33Z
2019-07-07T09:21:18Z,42.805,6.029,13.2987,4.60031,2469.867,2019-7-07T11:21:36Z
2019-07-07T09:24:21Z,42.805,6.029,13.2999,4.60031,2469.853,2019-7-07T11:24:39Z
2019-07-07T09:27:24Z,42.805,6.029,13.3000,4.60046,2469.853,2019-7-07T11:27:42Z
2019-07-07T09:30:27Z,42.805,6.029,13.2997,4.60070,2469.89,2019-7-07T11:30:45Z
2019-07-07T09:33:30Z,42.805,6.029,13.2996,4.60047,2469.867,2019-7-07T11:33:48Z
2019-07-07T09:36:33Z,42.805,6.029,13.3006,4.60070,2469.853,2019-7-07T11:36:51Z
2019-07-07T09:39:36Z,42.805,6.029,13.2986,4.60019,2469.858,2019-7-07T11:39:53Z
2019-07-07T09:42:39Z,42.805,6.029,13.2990,4.60043,2469.876,2019-7-07T11:42:56Z
2019-07-07T09:45:42Z,42.805,6.029,13.2991,4.60022,2469.853,2019-7-07T11:45:59Z
2019-07-07T09:48:45Z,42.805,6.029,13.2976,4.60043,2469.867,2019-7-07T11:49:02Z
2019-07-07T09:51:48Z,42.805,6.029,13.2985,4.60052,2469.853,2019-7-07T11:52:05Z
2019-07-07T09:54:50Z,42.805,6.029,13.3009,4.60068,2469.867,2019-7-07T11:55:08Z
2019-07-07T09:57:53Z,42.805,6.029,13.3004,4.60033,2469.89,2019-7-07T11:58:11Z
2019-07-07T10:00:56Z,42.805,6.029,13.2986,4.60047,2469.876,2019-7-07T12:01:14Z
2019-07-07T10:03:59Z,42.805,6.029,13.2983,4.60045,2469.876,2019-7-07T12:04:17Z
2019-07-07T10:07:02Z,42.805,6.029,13.2983,4.60047,2469.853,2019-7-07T12:07:20Z
2019-07-07T10:10:05Z,42.805,6.029,13.2996,4.60054,2469.853,2019-7-07T12:10:23Z
2019-07-07T10:13:08Z,42.805,6.029,13.2990,4.60053,2469.867,2019-7-07T12:13:26Z
2019-07-07T10:16:11Z,42.805,6.029,13.2983,4.60062,2469.876,2019-7-07T12:16:29Z
2019-07-07T10:19:14Z,42.805,6.029,13.2982,4.60052,2469.844,2019-7-07T12:19:32Z
2019-07-07T10:22:17Z,42.805,6.029,13.3005,4.60045,2469.89,2019-7-07T12:22:35Z
2019-07-07T10:25:20Z,42.805,6.029,13.2987,4.60030,2469.876,2019-7-07T12:25:38Z
2019-07-07T10:28:23Z,42.805,6.029,13.2996,4.60055,2469.89,2019-7-07T12:28:41Z
2019-07-07T10:31:26Z,42.805,6.029,13.2983,4.60058,2469.914,2019-7-07T12:31:44Z
2019-07-07T10:34:29Z,42.805,6.029,13.2978,4.60057,2469.89,2019-7-07T12:34:47Z
2019-07-07T10:37:32Z,42.805,6.029,13.3001,4.60050,2469.89,2019-7-07T12:37:50Z
2019-07-07T10:40:35Z,42.805,6.029,13.2979,4.60057,2469.876,2019-7-07T12:40:52Z
2019-07-07T10:43:38Z,42.805,6.029,13.2980,4.60049,2469.853,2019-7-07T12:43:55Z
2019-07-07T10:46:41Z,42.805,6.029,13.2990,4.60064,2469.937,2019-7-07T12:46:58Z
2019-07-07T10:49:44Z,42.805,6.029,13.2982,4.60031,2469.914,2019-7-07T12:50:01Z
2019-07-07T10:52:46Z,42.805,6.029,13.2985,4.60049,2469.89,2019-7-07T12:53:04Z
2019-07-07T10:55:49Z,42.805,6.029,13.2986,4.60042,2469.914,2019-7-07T12:56:07Z
2019-07-07T10:58:52Z,42.805,6.029,13.2992,4.60047,2469.853,2019-7-07T12:59:10Z
2019-07-07T11:01:55Z,42.805,6.029,13.2990,4.60039,2469.876,2019-7-07T13:02:13Z
2019-07-07T11:04:58Z,42.805,6.029,13.2988,4.60064,2469.914,2019-7-07T13:05:16Z
2019-07-07T11:08:01Z,42.805,6.029,13.2990,4.60055,2469.876,2019-7-07T13:08:19Z
2019-07-07T11:11:04Z,42.805,6.029,13.2989,4.60034,2469.867,2019-7-07T13:11:22Z
2019-07-07T11:14:07Z,42.805,6.029,13.2986,4.60013,2469.914,2019-7-07T13:14:25Z
2019-07-07T11:17:10Z,42.805,6.029,13.2983,4.60015,2469.83,2019-7-07T13:17:28Z
2019-07-07T11:20:13Z,42.805,6.029,13.2985,4.60005,2469.858,2019-7-07T13:20:31Z
2019-07-07T11:23:16Z,42.805,6.029,13.2976,4.60052,2469.83,2019-7-07T13:23:34Z
2019-07-07T11:26:19Z,42.805,6.029,13.2986,4.60060,2469.876,2019-7-07T13:26:37Z
2019-07-07T11:29:22Z,42.805,6.029,13.2976,4.60028,2469.867,2019-7-07T13:29:40Z
2019-07-07T11:32:25Z,42.805,6.029,13.2980,4.60081,2469.844,2019-7-07T13:32:43Z
2019-07-07T11:35:28Z,42.805,6.029,13.2974,4.60072,2469.867,2019-7-07T13:35:46Z
2019-07-07T11:38:31Z,42.805,6.029,13.2990,4.60063,2469.867,2019-7-07T13:38:48Z
2019-07-07T11:41:34Z,42.805,6.029,13.2983,4.60067,2469.867,2019-7-07T13:41:51Z
2019-07-07T11:44:37Z,42.805,6.029,13.2985,4.60021,2469.83,2019-7-07T13:44:54Z
2019-07-07T11:47:40Z,42.805,6.029,13.2988,4.60027,2469.83,2019-7-07T13:47:57Z
2019-07-07T11:50:43Z,42.805,6.029,13.2982,4.60090,2469.914,2019-7-07T13:51:00Z
2019-07-07T11:53:45Z,42.805,6.029,13.2984,4.60057,2469.844,2019-7-07T13:54:03Z
2019-07-07T11:56:48Z,42.805,6.029,13.2979,4.60078,2469.853,2019-7-07T13:57:06Z
2019-07-07T11:59:51Z,42.805,6.029,13.2993,4.60037,2469.83,2019-7-07T14:00:09Z
2019-07-07T12:02:54Z,42.805,6.029,13.2993,4.60019,2469.83,2019-7-07T14:03:12Z
2019-07-07T12:05:57Z,42.805,6.029,13.2996,4.60024,2469.876,2019-7-07T14:06:15Z
2019-07-07T12:09:00Z,42.805,6.029,13.3006,4.60029,2469.844,2019-7-07T14:09:18Z
2019-07-07T12:12:03Z,42.805,6.029,13.2996,4.60024,2469.83,2019-7-07T14:12:21Z
2019-07-07T12:15:06Z,42.805,6.029,13.3013,4.60053,2469.821,2019-7-07T14:15:24Z
2019-07-07T12:18:09Z,42.805,6.029,13.3007,4.59992,2469.844,2019-7-07T14:18:27Z
2019-07-07T12:21:12Z,42.805,6.029,13.3006,4.60026,2469.853,2019-7-07T14:21:30Z
2019-07-07T12:24:15Z,42.805,6.029,13.3029,4.60024,2469.867,2019-7-07T14:24:33Z
2019-07-07T12:27:18Z,42.805,6.029,13.2987,4.60048,2469.89,2019-7-07T14:27:36Z
2019-07-07T12:30:21Z,42.805,6.029,13.2989,4.60032,2469.867,2019-7-07T14:30:39Z
2019-07-07T12:33:24Z,42.805,6.029,13.2996,4.60054,2469.83,2019-7-07T14:33:42Z
2019-07-07T12:36:27Z,42.805,6.029,13.2991,4.60020,2469.867,2019-7-07T14:36:44Z
2019-07-07T12:39:30Z,42.805,6.029,13.2987,4.60026,2469.867,2019-7-07T14:39:47Z
2019-07-07T12:42:33Z,42.805,6.029,13.3014,4.60026,2469.867,2019-7-07T14:42:50Z
2019-07-07T12:45:36Z,42.805,6.029,13.2991,4.60057,2469.844,2019-7-07T14:45:53Z
2019-07-07T12:48:39Z,42.805,6.029,13.2989,4.60036,2469.821,2019-7-07T14:48:56Z
2019-07-07T12:51:41Z,42.805,6.029,13.2992,4.60064,2469.806,2019-7-07T14:51:59Z
2019-07-07T12:54:44Z,42.805,6.029,13.2986,4.60052,2469.806,2019-7-07T14:55:02Z
2019-07-07T12:57:47Z,42.805,6.029,13.2979,4.60049,2469.83,2019-7-07T14:58:05Z
2019-07-07T13:00:50Z,42.805,6.029,13.2984,4.60031,2469.821,2019-7-07T15:01:08Z
2019-07-07T13:03:53Z,42.805,6.029,13.2977,4.60072,2469.844,2019-7-07T15:04:11Z
2019-07-07T13:06:56Z,42.805,6.029,13.3002,4.60052,2469.806,2019-7-07T15:07:14Z
2019-07-07T13:09:59Z,42.805,6.029,13.2979,4.60063,2469.83,2019-7-07T15:10:17Z
2019-07-07T13:13:02Z,42.805,6.029,13.2986,4.60049,2469.821,2019-7-07T15:13:20Z
2019-07-07T13:16:05Z,42.805,6.029,13.2977,4.60077,2469.797,2019-7-07T15:16:23Z
2019-07-07T13:19:08Z,42.805,6.029,13.2987,4.60026,2469.806,2019-7-07T15:19:26Z
2019-07-07T13:22:11Z,42.805,6.029,13.2990,4.60029,2469.83,2019-7-07T15:22:29Z
2019-07-07T13:25:14Z,42.805,6.029,13.2983,4.60041,2469.783,2019-7-07T15:25:32Z
2019-07-07T13:28:17Z,42.805,6.029,13.3002,4.60031,2469.783,2019-7-07T15:28:35Z
2019-07-07T13:31:20Z,42.805,6.029,13.2982,4.60017,2469.821,2019-7-07T15:31:38Z
2019-07-07T13:34:23Z,42.805,6.029,13.2985,4.60067,2469.83,2019-7-07T15:34:41Z
2019-07-07T13:37:26Z,42.805,6.029,13.2990,4.60066,2469.806,2019-7-07T15:37:43Z
2019-07-07T13:40:29Z,42.805,6.029,13.2993,4.60066,2469.821,2019-7-07T15:40:46Z
2019-07-07T13:43:32Z,42.805,6.029,13.2979,4.60062,2469.806,2019-7-07T15:43:49Z
2019-07-07T13:46:35Z,42.805,6.029,13.2974,4.60034,2469.806,2019-7-07T15:46:52Z
2019-07-07T13:49:37Z,42.805,6.029,13.2991,4.60024,2469.797,2019-7-07T15:49:55Z
2019-07-07T13:52:40Z,42.805,6.029,13.2976,4.60069,2469.806,2019-7-07T15:52:58Z
2019-07-07T13:55:43Z,42.805,6.029,13.2979,4.60051,2469.76,2019-7-07T15:56:01Z
2019-07-07T13:58:46Z,42.805,6.029,13.2993,4.60044,2469.773,2019-7-07T15:59:04Z
2019-07-07T14:01:49Z,42.805,6.029,13.2980,4.60017,2469.76,2019-7-07T16:02:07Z
2019-07-07T14:04:52Z,42.805,6.029,13.2998,4.60046,2469.76,2019-7-07T16:05:10Z
2019-07-07T14:07:55Z,42.805,6.029,13.2983,4.60033,2469.76,2019-7-07T16:08:13Z
2019-07-07T14:10:58Z,42.805,6.029,13.2991,4.60020,2469.773,2019-7-07T16:11:16Z
2019-07-07T14:14:01Z,42.805,6.029,13.2971,4.60007,2469.75,2019-7-07T16:14:19Z
2019-07-07T14:17:04Z,42.805,6.029,13.3009,4.60006,2469.76,2019-7-07T16:17:22Z
2019-07-07T14:20:07Z,42.805,6.029,13.3005,4.60021,2469.773,2019-7-07T16:20:25Z
2019-07-07T14:23:10Z,42.805,6.029,13.3011,4.60000,2469.773,2019-7-07T16:23:28Z
2019-07-07T14:26:13Z,42.805,6.029,13.2986,4.60033,2469.773,2019-7-07T16:26:31Z
2019-07-07T14:29:16Z,42.805,6.029,13.2986,4.60019,2469.773,2019-7-07T16:29:34Z
2019-07-07T14:32:19Z,42.805,6.029,13.3001,4.60003,2469.773,2019-7-07T16:32:37Z
2019-07-07T14:35:22Z,42.805,6.029,13.3014,4.60039,2469.76,2019-7-07T16:35:39Z
2019-07-07T14:38:25Z,42.805,6.029,13.3006,4.60036,2469.773,2019-7-07T16:38:42Z
2019-07-07T14:41:28Z,42.805,6.029,13.3002,4.59985,2469.76,2019-7-07T16:41:45Z
2019-07-07T14:44:31Z,42.805,6.029,13.3002,4.60006,2469.773,2019-7-07T16:44:48Z
2019-07-07T14:47:34Z,42.805,6.029,13.3007,4.60001,2469.75,2019-7-07T16:47:51Z
2019-07-07T14:50:36Z,42.805,6.029,13.3006,4.59991,2469.797,2019-7-07T16:50:54Z
2019-07-07T14:53:39Z,42.805,6.029,13.3029,4.60031,2469.737,2019-7-07T16:53:57Z
2019-07-07T14:56:42Z,42.805,6.029,13.3018,4.60007,2469.75,2019-7-07T16:57:00Z
2019-07-07T14:59:45Z,42.805,6.029,13.3030,4.59973,2469.773,2019-7-07T17:00:03Z
2019-07-07T15:02:48Z,42.805,6.029,13.3024,4.60011,2469.773,2019-7-07T17:03:06Z
2019-07-07T15:05:51Z,42.805,6.029,13.3041,4.60011,2469.75,2019-7-07T17:06:09Z
2019-07-07T15:08:54Z,42.805,6.029,13.3053,4.59986,2469.737,2019-7-07T17:09:12Z